FW3335 Weather Reports


time (UTC)temp
F
wind
direction
speed
knots
gust
knots
rain 1hr
in
rain 24hr
in
rain mn
in
humidity
%
barometer
mb
20260906230101 74 331 3.5 7.0 0.00 0.00 0.00 16 1012.6
20260906224557 75 305 1.7 7.8 0.00 0.00 0.00 14 1012.6
20260906223101 76 205 1.7 8.7 0.00 0.00 0.00 11 1012.6
20260906221556 76 207 2.6 8.7 0.00 0.00 0.00 10 1012.7
20260906220055 76 175 2.6 13.0 0.00 0.00 0.00 9 1012.7
20260906214606 76 221 4.3 12.2 0.00 0.00 0.00 9 1012.9
20260906213051 76 207 4.3 7.8 0.00 0.00 0.00 9 1013.1
20260906211554 76 220 5.2 8.7 0.00 0.00 0.00 11 1013.2
20260906210111 76 263 0.0 3.5 0.00 0.00 0.00 15 1013.2
20260906204559 75 244 0.9 7.8 0.00 0.00 0.00 17 1013.2
20260906203047 75 12 6.1 9.6 0.00 0.00 0.00 18 1013.3
20260906201551 75 257 2.6 5.2 0.00 0.00 0.00 18 1013.6
20260906200043 74 224 0.9 4.3 0.00 0.00 0.00 20 1013.7
20260906194541 75 34 2.6 7.8 0.00 0.00 0.00 19 1013.7
20260906193037 72 5 2.6 7.8 0.00 0.00 0.00 22 1014.0
20260906191539 72 11 2.6 7.8 0.00 0.00 0.00 23 1014.1
20260906190033 72 336 2.6 5.2 0.00 0.00 0.00 24 1014.4
20260906184534 71 59 2.6 7.8 0.00 0.00 0.00 23 1014.6
20260906183032 71 21 5.2 9.6 0.00 0.00 0.00 22 1014.6
20260906181530 71 222 1.7 5.2 0.00 0.00 0.00 23 1015.1
20260906180026 70 280 2.6 7.8 0.00 0.00 0.00 24 1015.5
20260906174524 70 69 2.6 7.8 0.00 0.00 0.00 25 1016.1
20260906173016 68 97 1.7 7.0 0.00 0.00 0.00 27 1016.3
20260906171514 68 5 2.6 7.0 0.00 0.00 0.00 27 1016.5
20260906170011 66 360 1.7 7.0 0.00 0.00 0.00 27 1016.6
20260906164507 65 48 2.6 7.0 0.00 0.00 0.00 30 1017.0
20260906163006 65 55 1.7 8.7 0.00 0.00 0.00 30 1017.1
20260906161504 64 5 1.7 4.3 0.00 0.00 0.00 32 1017.2
20260906160100 63 5 2.6 5.2 0.00 0.00 0.00 37 1017.3
20260906154556 61 180 0.0 0.0 0.00 0.00 0.00 43 1017.2
20260906153111 59 180 0.0 0.0 0.00 0.00 0.00 48 1017.3
20260906151556 57 190 0.0 0.0 0.00 0.00 0.00 53 1017.6
20260906150045 55 191 0.0 0.0 0.00 0.00 0.00 55 1017.9
20260906144544 53 191 0.0 0.0 0.00 0.00 0.00 59 1017.9
20260906143043 50 191 0.0 0.0 0.00 0.00 0.00 62 1018.3
20260906141535 47 191 0.0 0.0 0.00 0.00 0.00 64 1018.4
20260906140036 45 190 0.0 0.0 0.00 0.00 0.00 65 1018.3
20260906134534 43 190 0.0 0.0 0.00 0.00 0.00 72 1018.4
20260906133031 42 190 0.0 0.0 0.00 0.00 0.00 72 1018.0
20260906131531 41 190 0.0 0.0 0.00 0.00 0.00 72 1017.8
20260906130032 41 190 0.0 2.6 0.00 0.00 0.00 72 1018.0
20260906124528 40 190 0.9 2.6 0.00 0.00 0.00 70 1017.6
20260906123042 40 190 0.9 3.5 0.00 0.00 0.00 70 1017.4
20260906121522 41 190 0.0 0.0 0.00 0.00 0.00 69 1017.5
20260906120021 42 190 0.0 1.7 0.00 0.00 0.00 70 1017.4
20260906114523 42 190 0.0 1.7 0.00 0.00 0.00 70 1017.4
20260906113018 42 190 0.0 2.6 0.00 0.00 0.00 70 1017.6
20260906111518 42 190 0.0 0.9 0.00 0.00 0.00 69 1017.6
20260906110017 42 190 0.9 2.6 0.00 0.00 0.00 69 1017.7
20260906104518 43 190 0.0 1.7 0.00 0.00 0.00 70 1017.8
20260906103014 42 190 1.7 3.5 0.00 0.00 0.00 68 1017.7
20260906101521 43 188 0.0 0.0 0.00 0.00 0.00 68 1017.4
20260906100010 43 188 0.0 1.7 0.00 0.00 0.00 69 1017.4
20260906094506 44 188 0.0 2.6 0.00 0.00 0.00 68 1017.4
20260906093003 45 188 0.0 0.0 0.00 0.00 0.00 68 1017.5
20260906091501 45 188 0.0 3.5 0.00 0.00 0.00 69 1017.5
20260906090116 45 188 1.7 2.6 0.00 0.00 0.00 68 1017.7
20260906084557 46 187 0.0 3.5 0.00 0.00 0.00 70 1017.6
20260906083054 47 188 0.9 2.6 0.00 0.00 0.00 69 1017.5
20260906081553 48 188 0.0 1.7 0.00 0.00 0.00 67 1017.7
20260906080057 49 188 2.6 4.3 0.00 0.00 0.00 67 1017.7
20260906074603 49 186 0.0 3.5 0.00 0.00 0.00 67 1017.9
20260906073058 49 183 2.6 3.5 0.00 0.00 0.00 67 1018.0
20260906071544 49 184 0.9 3.5 0.00 0.00 0.00 68 1017.9
20260906070044 49 175 0.0 2.6 0.00 0.00 0.00 67 1017.8
20260906064541 49 175 0.9 2.6 0.00 0.00 0.00 67 1017.8
20260906063046 50 174 0.9 2.6 0.00 0.00 0.00 66 1017.8
20260906061535 50 173 1.7 4.3 0.00 0.00 0.00 65 1017.6
20260906060032 50 106 0.0 0.0 0.00 0.00 0.00 73 1017.4
20260906054531 51 106 0.0 1.7 0.00 0.00 0.00 73 1017.4
20260906053030 52 105 0.0 1.7 0.00 0.00 0.00 72 1017.2
20260906051549 54 105 0.0 0.9 0.00 0.00 0.00 69 1017.3
20260906050038 55 105 0.0 0.0 0.00 0.00 0.00 67 1017.3
20260906044536 56 105 0.0 2.6 0.00 0.00 0.00 66 1017.5
20260906043028 56 105 0.0 0.0 0.00 0.00 0.00 65 1017.7
20260906041527 57 105 0.0 0.0 0.00 0.00 0.00 65 1017.6
20260906040034 58 105 0.0 0.9 0.00 0.00 0.00 63 1018.1
20260906034534 59 96 0.9 5.2 0.00 0.00 0.00 57 1018.2
20260906033026 59 33 0.0 0.9 0.00 0.00 0.00 53 1017.7
20260906031536 59 105 0.0 3.5 0.00 0.00 0.00 52 1017.1
20260906030025 60 111 0.0 0.9 0.00 0.00 0.00 52 1016.8
20260906024525 61 111 0.0 6.1 0.00 0.00 0.00 51 1016.6
20260906023024 61 120 0.0 4.3 0.00 0.00 0.00 51 1016.5
20260906021524 62 107 3.5 9.6 0.00 0.00 0.00 49 1016.3
20260906020024 63 244 0.0 0.0 0.00 0.00 0.00 44 1015.6
20260906014528 64 244 0.0 0.0 0.00 0.00 0.00 43 1015.1
20260906013026 65 244 0.0 0.9 0.00 0.00 0.00 42 1014.9
20260906011522 65 244 0.0 0.9 0.00 0.00 0.00 43 1014.7
20260906010025 66 244 0.0 2.6 0.00 0.00 0.00 42 1014.6
20260906004521 67 205 0.0 5.2 0.00 0.00 0.00 43 1014.6
20260906003021 67 242 0.0 0.9 0.00 0.00 0.00 38 1014.5
20260906001519 67 241 0.0 0.9 0.00 0.00 0.00 37 1014.5
20260906000020 65 241 0.0 0.9 0.00 0.00 0.00 45 1014.5
20260905234519 64 240 0.0 0.0 0.00 0.00 0.00 45 1014.6
20260905233018 65 240 0.0 0.9 0.00 0.00 0.00 49 1014.5
20260905231523 66 241 0.0 0.9 0.00 0.00 0.00 49 1014.2